RUSSARO Weather Reports


Display with metric or nautical units.
time (UTC)temp
F
wind
direction
speed
MPH
gust
MPH
rain 1hr
in
rain 24hr
in
rain mn
in
humidity
%
barometer
mb
20260906042454 50 342 17.0 24.0 0.00 0.00 0.00 86 1006.0
20260906040456 50 340 17.0 27.0 0.00 0.00 0.00 87 1006.2
20260906034126 50 340 19.0 28.0 0.00 0.00 0.00 86 1005.8
20260906032126 51 336 17.0 23.0 0.00 0.00 0.00 86 1005.4
20260906030457 51 339 18.0 26.0 0.00 0.00 0.00 86 1004.9
20260906024456 51 337 18.0 26.0 0.00 0.00 0.00 85 1005.1
20260906022457 51 339 18.0 26.0 0.00 0.00 0.00 86 1004.9
20260906020457 51 340 16.0 24.0 0.00 0.00 0.00 86 1004.7
20260906014458 51 339 21.0 28.0 0.00 0.00 0.00 83 1004.4
20260906012455 52 339 17.0 23.0 0.00 0.00 0.00 84 1004.2
20260906010457 52 343 20.0 27.0 0.00 0.00 0.00 83 1004.0
20260906004457 52 340 23.0 31.0 0.00 0.00 0.00 83 1003.7
20260906002456 53 335 19.0 27.0 0.00 0.00 0.00 83 1003.2
20260906000455 53 337 20.0 25.0 0.00 0.00 0.00 84 1003.1
20260905234455 54 335 15.0 21.0 0.00 0.00 0.00 85 1002.8
20260905232455 55 341 16.0 23.0 0.00 0.00 0.00 83 1002.5
20260905230455 56 348 17.0 23.0 0.00 0.00 0.00 79 1002.2
20260905224455 56 358 17.0 26.0 0.00 0.00 0.00 77 1002.0
20260905222455 57 350 13.0 19.0 0.00 0.00 0.00 82 1001.7
20260905220456 57 339 13.0 18.0 0.00 0.00 0.00 82 1001.6
20260905214455 58 332 15.0 20.0 0.00 0.00 0.00 82 1001.5
20260905212456 58 326 15.0 20.0 0.00 0.00 0.00 83 1001.2
20260905210125 59 322 15.0 19.0 0.00 0.00 0.00 82 1001.0
20260905204454 59 315 14.0 18.0 0.00 0.00 0.00 80 1000.8
20260905202454 59 314 15.0 18.0 0.00 0.00 0.00 79 1000.6
20260905200456 59 312 16.0 19.0 0.00 0.00 0.00 77 1000.5
20260905194125 60 307 15.0 18.0 0.00 0.00 0.00 79 1000.3
20260905192125 60 305 15.0 18.0 0.00 0.00 0.00 80 1000.2
20260905190454 60 308 15.0 18.0 0.00 0.00 0.00 78 1000.2
20260905184456 60 308 15.0 19.0 0.00 0.00 0.00 78 1000.0
20260905182454 60 306 16.0 19.0 0.00 0.00 0.00 78 1000.0
20260905180452 60 305 17.0 21.0 0.00 0.00 0.00 77 999.9
20260905174452 60 305 18.0 22.0 0.00 0.00 0.00 75 999.6
20260905172453 60 302 19.0 22.0 0.00 0.00 0.00 76 999.4
20260905170454 60 301 22.0 25.0 0.00 0.00 0.00 76 999.2
20260905164455 61 305 21.0 24.0 0.00 0.00 0.00 69 998.6
20260905162126 61 306 19.0 24.0 0.00 0.00 0.00 70 998.7
20260905160124 62 305 22.0 26.0 0.00 0.00 0.00 68 998.5
20260905154453 62 299 23.0 25.0 0.00 0.00 0.00 60 998.3
20260905152455 63 297 22.0 25.0 0.00 0.00 0.00 60 998.2
20260905150453 63 294 21.0 23.0 0.00 0.00 0.00 61 998.0
20260905144124 64 289 22.0 25.0 0.00 0.00 0.00 62 997.9
20260905142454 64 288 21.0 24.0 0.00 0.00 0.00 61 997.7
20260905140454 64 288 18.0 22.0 0.00 0.00 0.00 61 997.6
20260905134453 64 269 20.0 22.0 0.00 0.00 0.00 65 997.5
20260905132452 64 268 19.0 22.0 0.00 0.00 0.00 65 997.5
20260905130458 63 269 16.0 17.0 0.00 0.00 0.00 65 997.3
20260905124453 63 270 17.0 18.0 0.00 0.00 0.00 63 997.3
20260905122452 63 265 16.0 18.0 0.00 0.00 0.00 66 997.2
20260905120453 64 266 16.0 18.0 0.00 0.00 0.00 65 997.0
20260905114453 62 269 15.0 17.0 0.00 0.00 0.00 66 997.0
20260905112455 63 261 12.0 15.0 0.00 0.00 0.00 63 996.9
20260905110453 62 273 12.0 14.0 0.00 0.00 0.00 63 996.7
20260905104454 62 281 10.0 12.0 0.00 0.00 0.00 63 996.5
20260905102454 62 285 9.0 13.0 0.00 0.00 0.00 63 996.3
20260905100453 62 284 10.0 12.0 0.00 0.00 0.00 66 996.2
20260905094452 62 289 10.0 12.0 0.00 0.00 0.00 65 996.0
20260905092453 61 297 10.0 12.0 0.00 0.00 0.00 70 995.9
20260905084454 61 304 10.0 12.0 0.00 0.00 0.00 67 995.7
20260905082455 60 301 9.0 11.0 0.00 0.00 0.00 70 995.4
20260905080451 61 308 8.0 11.0 0.00 0.00 0.00 73 995.3
20260905074123 60 335 8.0 10.0 0.00 0.00 0.00 76 995.2
20260905072451 58 330 7.0 10.0 0.00 0.00 0.00 75 995.0
20260905070454 58 321 8.0 10.0 0.00 0.00 0.00 78 994.9
20260905064122 58 334 6.0 9.0 0.00 0.00 0.00 79 994.8
20260905062451 56 333 7.0 9.0 0.00 0.00 0.00 81 994.7
20260905060452 56 316 4.0 6.0 0.00 0.00 0.00 83 994.6
20260905054451 55 345 3.0 4.0 0.00 0.00 0.00 87 994.6
20260905052451 54 7 4.0 5.0 0.00 0.00 0.00 87 994.6
20260905050451 55 21 6.0 7.0 0.00 0.00 0.00 88 994.6
20260905044453 55 22 6.0 7.0 0.00 0.00 0.00 88 994.6